[[{"header":{"parameterUnit":"m.s-1","parameterCategory":1,"la1":30.2991,"la2":30.254,"lo1":-89.0895,"lo2":-89.0444,"dy":0.0017,"dx":0.0017,"nx":28,"ny":28,"refTime":"2025-02-07T03:00:00:Z","depth":0,"parameterNumber":2,"parameterNumberName":"U-component_of_WINDS"},"data":[0,0,0,0,0,0,0,0,0,0,0,0,0,0,0,0,0,0,0,0,0,0,0,0,0,0,0,0,0,0,0,0,0,0,0,0,0,0,0,0,0,0,0,0,0,0,0,0,0,0,0,0,0,0,0,0,0,0,-0.5293,-0.5293,0,-0.5286,-0.5286,-0.5286,-0.5294,-0.5294,-0.5295,-0.5295,-0.5289,-0.5288,-0.5288,0,0,0,0,0,0,0,0,0,0,0,0,0,-0.5311,-0.5311,-0.5293,-0.5293,-0.5292,-0.5286,-0.5286,-0.5286,-0.5294,-0.5294,-0.5295,-0.5295,-0.5289,-0.5288,-0.5288,0,0,0,0,0,0,0,0,0,0,0,0,0,-0.5304,-0.531,-0.5293,-0.5296,-0.5296,-0.5286,-0.5286,-0.5286,-0.5294,-0.5294,-0.5295,-0.5295,-0.5289,-0.5288,-0.5288,-0.5275,0,0,-0.5286,-0.5285,0,0,0,0,0,0,0,0,-0.5304,-0.5303,-0.5295,-0.5295,-0.5296,-0.5291,-0.529,-0.5282,-0.5294,-0.5295,-0.5295,-0.5295,-0.5289,-0.5289,-0.5286,-0.5275,-0.5274,-0.5286,-0.5285,-0.5285,-0.5285,0,0,0,0,0,0,0,-0.5305,-0.5303,-0.529,-0.5295,-0.5295,-0.5297,-0.5297,-0.5289,-0.529,-0.5295,-0.5295,-0.5294,-0.5289,-0.5287,-0.5286,-0.5274,-0.5286,-0.5285,-0.5285,-0.5284,-0.525,-0.525,0,0,0,0,0,0,-0.5305,-0.5304,-0.529,-0.529,-0.5301,-0.5296,-0.5296,-0.5292,-0.529,-0.529,-0.5294,-0.5295,-0.5288,-0.5287,-0.5286,-0.527,-0.5285,-0.5284,-0.5284,-0.5251,-0.525,-0.525,0,0,0,0,0,0,-0.5305,-0.5303,-0.5291,-0.5297,-0.5295,-0.5296,-0.5292,-0.5292,-0.529,-0.5289,-0.5289,-0.5291,-0.5288,-0.5287,-0.5277,-0.527,-0.5284,-0.5283,-0.5251,-0.5251,-0.525,-0.5238,0,0,0,0,0,0,-0.5306,-0.5304,-0.5299,-0.5297,-0.5295,-0.5282,-0.5291,-0.5292,-0.5288,-0.5289,-0.5287,-0.5287,-0.5289,-0.5278,-0.5277,-0.5269,-0.5283,-0.5252,-0.5251,-0.525,-0.5239,-0.5237,-0.5235,0,0,0,0,0,-0.5306,-0.5296,-0.5299,-0.5297,-0.5289,-0.5282,-0.5281,-0.5283,-0.5288,-0.5283,-0.5282,-0.5287,-0.5271,-0.5277,-0.5276,-0.5268,-0.5253,-0.5251,-0.525,-0.524,-0.5238,-0.5235,0,0,0,0,0,0,-0.5298,-0.5296,-0.5299,-0.5288,-0.5285,-0.5283,-0.5277,-0.528,-0.5276,-0.5277,-0.5279,-0.5279,-0.5268,-0.5267,-0.5274,-0.5255,-0.5263,-0.5261,-0.5256,-0.5253,-0.5251,-0.5251,-0.5282,0,0,0,0,0,-0.5295,-0.5289,-0.5288,-0.5278,-0.5276,-0.5277,-0.5274,-0.5275,-0.5272,-0.5271,-0.527,-0.5267,-0.5261,-0.5257,-0.5252,-0.5239,-0.5238,-0.5233,-0.5231,-0.523,-0.5228,-0.522,-0.5217,-0.5246,-0.5246,-0.5246,0,0,-0.5289,-0.5287,-0.5283,-0.5277,-0.5274,-0.5268,-0.5276,-0.5269,-0.5264,-0.527,-0.526,-0.5259,-0.5256,-0.5244,-0.5239,-0.5243,-0.522,-0.5228,-0.5227,-0.5226,-0.5218,-0.5216,-0.5213,-0.5245,-0.5245,-0.5245,0,0,-0.5274,-0.5272,-0.5263,-0.5261,-0.5257,-0.5257,-0.5255,-0.5252,-0.5252,-0.5242,-0.5246,-0.524,-0.5231,-0.5227,-0.5225,-0.5207,-0.521,-0.5205,-0.5195,-0.5187,-0.5184,-0.5182,-0.5175,-0.5172,-0.5204,-0.5204,-0.5204,0,-0.5266,-0.5256,-0.5259,-0.5251,-0.5247,-0.5252,-0.5243,-0.524,-0.5235,-0.5232,-0.5237,-0.5224,-0.5222,-0.5209,-0.5204,-0.5203,-0.5199,-0.5205,-0.5184,-0.5182,-0.5181,-0.5173,-0.5171,-0.5203,-0.5203,-0.5203,-0.5203,0,-0.5247,-0.524,-0.5233,-0.5227,-0.5223,-0.5215,-0.5215,-0.5211,-0.5212,-0.5212,-0.5201,-0.5199,-0.5193,-0.519,-0.5192,-0.5177,-0.5179,-0.5184,-0.5192,-0.5177,-0.517,-0.5168,-0.5202,-0.5202,-0.5202,-0.5202,0,0,-0.5227,-0.5221,-0.5219,-0.5216,-0.5211,-0.5206,-0.5197,-0.5191,-0.5186,-0.5182,-0.5174,-0.5165,-0.5169,-0.5166,-0.5168,-0.5161,-0.5145,-0.5166,-0.5166,-0.5161,-0.5127,-0.5122,-0.5119,-0.5148,-0.5147,-0.5147,-0.5127,0,-0.5211,-0.5196,-0.5197,-0.5182,-0.5175,-0.5179,-0.5171,-0.5167,-0.5166,-0.516,-0.5159,-0.5152,-0.5159,-0.5156,-0.515,-0.5148,-0.5138,-0.515,-0.514,-0.5139,-0.5139,-0.5116,-0.5112,-0.5093,-0.5124,-0.5124,-0.5123,0,-0.519,-0.5185,-0.5169,-0.5164,-0.5161,-0.5155,-0.5148,-0.5142,-0.5137,-0.5137,-0.5132,-0.5135,-0.5125,-0.5134,-0.512,-0.5128,-0.5124,-0.5123,-0.5122,-0.512,-0.513,-0.5113,-0.5087,-0.5084,-0.5119,-0.512,-0.512,0,-0.5176,-0.5165,-0.5153,-0.5151,-0.5145,-0.514,-0.5138,-0.5133,-0.5129,-0.5123,-0.512,-0.5113,-0.5109,-0.5104,-0.5104,-0.511,-0.509,-0.5099,-0.5088,-0.5088,-0.5083,-0.5084,-0.5056,-0.5082,-0.5082,-0.5082,-0.5082,0,-0.5158,-0.5148,-0.5147,-0.514,-0.5128,-0.5129,-0.5118,-0.5116,-0.5112,-0.5104,-0.5108,-0.5101,-0.5102,-0.5094,-0.5094,-0.5082,-0.5081,-0.508,-0.508,-0.5079,-0.5079,-0.5076,-0.5076,-0.5082,-0.5082,-0.5082,-0.5082,0,-0.514,-0.5139,-0.5127,-0.5122,-0.512,-0.5112,-0.5108,-0.5101,-0.51,-0.509,-0.5088,-0.5086,-0.5077,-0.5077,-0.5067,-0.5067,-0.5052,-0.5054,-0.5053,-0.5053,-0.5043,-0.5043,-0.5011,-0.5006,-0.5037,-0.5037,-0.5037,0,-0.5128,-0.512,-0.5114,-0.5109,-0.5106,-0.5098,-0.5093,-0.5093,-0.5088,-0.5081,-0.5075,-0.5066,-0.5059,-0.5045,-0.5042,-0.5034,-0.5036,-0.5025,-0.5034,-0.5033,-0.5034,-0.5034,-0.5033,-0.5023,-0.5022,-0.5022,-0.5022,0,-0.5106,-0.5105,-0.5098,-0.509,-0.5084,-0.5078,-0.5072,-0.5068,-0.5067,-0.5061,-0.5051,-0.5046,-0.5035,-0.5026,-0.5018,-0.5015,-0.5018,-0.5019,-0.5016,-0.5014,-0.5014,-0.5013,-0.5047,-0.5019,-0.502,-0.502,-0.502,-0.502,-0.509,-0.5082,-0.5077,-0.5068,-0.5063,-0.5058,-0.505,-0.5048,-0.504,-0.5031,-0.5032,-0.5021,-0.5015,-0.5005,-0.5001,-0.4992,-0.4996,-0.4992,-0.4991,-0.4989,-0.4988,-0.5016,-0.4991,-0.4991,-0.4991,-0.4991,-0.4991,0,-0.5067,-0.5063,-0.5055,-0.5047,-0.5039,-0.5042,-0.5036,-0.5029,-0.502,-0.5014,-0.5007,-0.4995,-0.4986,-0.4983,-0.4974,-0.4967,-0.4968,-0.4965,-0.4965,-0.4964,-0.4986,-0.4988,-0.4964,-0.4964,-0.4964,-0.4964,-0.4964,-0.4964,-0.5055,-0.5042,-0.504,-0.5025,-0.5021,-0.501,-0.5006,-0.5,-0.4996,-0.4983,-0.4975,-0.4972,-0.4967,-0.4958,-0.4949,-0.4948,-0.4944,-0.494,-0.4939,-0.496,-0.4962,-0.4965,-0.4968,-0.4939,-0.4939,-0.4918,-0.4918,-0.4918]},{"header":{"parameterUnit":"m.s-1","parameterCategory":1,"la1":30.2991,"la2":30.254,"lo1":-89.0895,"lo2":-89.0444,"dy":0.0017,"dx":0.0017,"nx":28,"ny":28,"refTime":"2025-02-07T03:00:00:Z","depth":0,"parameterNumber":3,"parameterNumberName":"V-component_of_WINDS"},"data":[0,0,0,0,0,0,0,0,0,0,0,0,0,0,0,0,0,0,0,0,0,0,0,0,0,0,0,0,0,0,0,0,0,0,0,0,0,0,0,0,0,0,0,0,0,0,0,0,0,0,0,0,0,0,0,0,0,0,1.7921,1.7923,0,1.8089,1.8091,1.8093,1.8151,1.815,1.815,1.8149,1.8322,1.8327,1.8332,0,0,0,0,0,0,0,0,0,0,0,0,0,1.7653,1.7658,1.7921,1.7923,1.7925,1.8088,1.8091,1.8093,1.8151,1.815,1.8149,1.8149,1.832,1.8326,1.8333,0,0,0,0,0,0,0,0,0,0,0,0,0,1.779,1.7659,1.7921,1.7974,1.798,1.8088,1.8091,1.8094,1.8151,1.815,1.8149,1.8148,1.8318,1.8326,1.8333,1.8401,0,0,1.8357,1.8361,0,0,0,0,0,0,0,0,1.7782,1.78,1.7964,1.797,1.7978,1.8098,1.806,1.8197,1.8151,1.8086,1.8149,1.8148,1.8248,1.8262,1.8295,1.8409,1.8417,1.8358,1.8363,1.8366,1.8368,0,0,0,0,0,0,0,1.7773,1.7793,1.7987,1.7966,1.7975,1.799,1.8008,1.8086,1.8171,1.8092,1.8096,1.8115,1.8252,1.8288,1.83,1.8419,1.8358,1.8365,1.837,1.8373,1.86,1.8601,0,0,0,0,0,0,1.7754,1.7785,1.7982,1.7992,1.7875,1.7995,1.8016,1.806,1.817,1.8186,1.8116,1.8118,1.8275,1.8291,1.8306,1.8395,1.8366,1.8373,1.8378,1.8598,1.86,1.8601,0,0,0,0,0,0,1.7748,1.7771,1.7975,1.789,1.7917,1.8001,1.805,1.8064,1.81,1.8188,1.8204,1.8137,1.8275,1.8295,1.8378,1.8401,1.8377,1.8384,1.8597,1.8599,1.8601,1.8571,0,0,0,0,0,0,1.774,1.7768,1.7794,1.789,1.7921,1.8043,1.8052,1.8068,1.8113,1.8117,1.8212,1.8227,1.8275,1.8366,1.8385,1.8412,1.839,1.8595,1.8598,1.86,1.857,1.8571,1.8573,0,0,0,0,0,1.773,1.7779,1.7795,1.7819,1.7955,1.8044,1.8062,1.8117,1.8115,1.8142,1.8199,1.8224,1.8395,1.8374,1.8396,1.8425,1.8594,1.8597,1.86,1.8569,1.8571,1.8572,0,0,0,0,0,0,1.7684,1.7792,1.7812,1.7893,1.7959,1.8054,1.809,1.8117,1.8185,1.8185,1.825,1.8271,1.8349,1.8395,1.8369,1.8498,1.8496,1.8504,1.8465,1.8467,1.8469,1.8457,1.8397,0,0,0,0,0,1.7683,1.7746,1.7837,1.79,1.7932,1.8005,1.8046,1.8082,1.8154,1.8182,1.8245,1.8313,1.8383,1.8428,1.8496,1.8576,1.8599,1.8608,1.8609,1.861,1.8616,1.8664,1.867,1.8611,1.8611,1.8611,0,0,1.7682,1.7749,1.7785,1.7892,1.7948,1.8012,1.8028,1.8095,1.8144,1.8192,1.8275,1.8323,1.8404,1.8486,1.8525,1.8527,1.8637,1.8613,1.8613,1.862,1.8668,1.8673,1.8678,1.8613,1.8613,1.8613,0,0,1.7714,1.777,1.783,1.7885,1.7969,1.8018,1.8032,1.8123,1.8157,1.8241,1.8279,1.8338,1.8456,1.8513,1.8557,1.8611,1.8638,1.8632,1.864,1.8686,1.869,1.8695,1.8716,1.8723,1.8638,1.8638,1.8637,0,1.7703,1.7801,1.7857,1.7923,1.797,1.8016,1.8078,1.8129,1.8231,1.8263,1.8262,1.8413,1.847,1.8568,1.8581,1.8614,1.8634,1.8622,1.8685,1.869,1.8695,1.8716,1.8724,1.8636,1.8637,1.8637,1.8637,0,1.7784,1.7851,1.7889,1.7987,1.8038,1.8101,1.8168,1.8213,1.8245,1.8294,1.8379,1.845,1.8535,1.856,1.8592,1.8663,1.8661,1.8672,1.8672,1.8698,1.872,1.8728,1.8635,1.8635,1.8636,1.8636,0,0,1.7792,1.792,1.7933,1.7979,1.8076,1.8129,1.8195,1.8278,1.8316,1.8385,1.8443,1.8542,1.8554,1.8604,1.8642,1.8682,1.8724,1.8689,1.8692,1.8695,1.8809,1.8801,1.881,1.8741,1.8743,1.8744,1.8803,0,1.7838,1.7957,1.801,1.8106,1.817,1.8215,1.8273,1.8339,1.8386,1.8448,1.8501,1.8571,1.8579,1.8611,1.8652,1.871,1.8748,1.8706,1.8797,1.88,1.8778,1.882,1.8812,1.8864,1.8811,1.8812,1.8813,0,1.7907,1.7977,1.8079,1.8169,1.8198,1.8249,1.833,1.8388,1.8465,1.8497,1.8553,1.859,1.8662,1.8656,1.8757,1.8728,1.8768,1.8802,1.8806,1.8818,1.8809,1.8836,1.8882,1.889,1.8827,1.8826,1.8825,0,1.7906,1.8024,1.8102,1.8139,1.8246,1.8281,1.8327,1.8402,1.8449,1.852,1.8552,1.863,1.8673,1.8733,1.8791,1.8781,1.8888,1.8886,1.8918,1.8917,1.894,1.8938,1.8995,1.8962,1.8962,1.8962,1.8962,0,1.7953,1.8014,1.8103,1.815,1.8221,1.8281,1.835,1.8399,1.8466,1.8525,1.8568,1.8623,1.8695,1.8759,1.8804,1.8883,1.8901,1.893,1.8942,1.8928,1.8924,1.8956,1.8955,1.8964,1.8964,1.8963,1.8963,0,1.7963,1.8025,1.8112,1.8206,1.8231,1.8279,1.836,1.8409,1.8458,1.8533,1.8554,1.8632,1.871,1.8773,1.8874,1.8905,1.8988,1.9,1.8962,1.8969,1.8998,1.8995,1.9079,1.9094,1.9049,1.9049,1.905,0,1.799,1.8038,1.8138,1.818,1.8226,1.8293,1.8342,1.8404,1.8452,1.8544,1.8582,1.8662,1.8731,1.8853,1.8919,1.8998,1.9014,1.9038,1.9026,1.901,1.9017,1.9014,1.902,1.9039,1.9039,1.904,1.904,0,1.8032,1.806,1.8128,1.8207,1.8263,1.8329,1.8395,1.8427,1.8501,1.8554,1.8634,1.8687,1.8791,1.8872,1.8957,1.9006,1.9036,1.9043,1.9055,1.9042,1.9019,1.9034,1.8967,1.9041,1.9041,1.9041,1.9041,1.9041,1.8053,1.8099,1.8176,1.8251,1.8307,1.8369,1.8419,1.8476,1.8543,1.8633,1.8665,1.8748,1.8825,1.8943,1.8992,1.9058,1.9061,1.9078,1.9083,1.9086,1.9086,1.9006,1.9074,1.9074,1.9074,1.9074,1.9074,0,1.8099,1.8151,1.8219,1.8311,1.837,1.8392,1.8467,1.8515,1.8587,1.8656,1.8722,1.8815,1.8894,1.8966,1.9049,1.9088,1.9104,1.9108,1.9106,1.9118,1.9077,1.906,1.9093,1.9093,1.9093,1.9093,1.9093,1.9093,1.813,1.8209,1.8247,1.8356,1.8408,1.8489,1.853,1.8587,1.8643,1.8745,1.881,1.8857,1.8928,1.9016,1.9089,1.9109,1.9138,1.9138,1.9162,1.9123,1.912,1.9118,1.9102,1.9144,1.9144,1.9197,1.9198,1.9198]}]]